Location: Ciserano
(45.5833°N, 9.6000°E)
Time: 14:47:53
(UTC+00:00)

FALCON 9 DEB - Visible Passes

Search period start: 20 April 2021 00:00
Search period end: 30 April 2021 00:00
Orbit: 366 x 384 km, 53.0° (Epoch: 19 April)

Date Brightness Start Highest point End Pass type
(mag) Time Alt. Az. Time Alt. Az. Time Alt. Az.
20 Apr 5.9 01:43:10 11° E 01:43:10 11° E 01:43:17 10° ESE visible
20 Apr 3.9 03:15:20 23° WSW 03:15:51 24° SW 03:18:26 10° SSE visible
20 Apr 4.5 19:47:29 10° SSW 19:48:47 20° S 19:48:47 20° S visible
21 Apr 4.6 18:47:08 10° SSE 18:48:52 14° SE 18:50:38 10° E visible
21 Apr 3.1 20:21:11 10° WSW 20:23:55 65° W 20:23:55 65° W visible
22 Apr 3.0 19:19:40 10° SW 19:22:37 49° SE 19:25:34 10° ENE visible
22 Apr 4.7 20:55:41 10° W 20:58:13 30° NNW 20:58:13 30° NNW visible
23 Apr 3.6 19:53:38 10° WSW 19:56:36 51° NNW 19:59:36 10° NE visible
23 Apr 5.7 21:30:24 10° WNW 21:31:51 18° NNW 21:31:51 18° NNW visible
24 Apr 2.7 18:51:52 10° SW 18:54:52 75° SE 18:57:55 10° ENE visible
24 Apr 5.0 20:28:12 10° WNW 20:30:49 26° NNW 20:32:57 13° NE visible
24 Apr 6.3 22:04:50 10° NW 22:05:02 11° NW 22:05:02 11° NW visible
25 Apr 4.3 19:26:00 10° W 19:28:52 38° NNW 19:31:46 10° NE visible
25 Apr 5.3 21:02:49 10° NW 21:05:09 20° N 21:05:50 18° NNE visible
26 Apr 5.2 20:00:35 10° WNW 20:03:04 22° N 20:05:35 10° NE visible
26 Apr 5.7 21:37:01 10° NW 21:38:31 19° NNW 21:38:31 19° NNW visible
27 Apr 4.7 18:58:16 10° W 19:01:01 31° NNW 19:03:47 10° NE visible
27 Apr 5.4 20:35:02 10° NW 20:37:21 20° N 20:39:01 14° NE visible
27 Apr 6.2 22:10:48 10° NW 22:11:03 12° NW 22:11:03 12° NW visible
28 Apr 5.3 19:32:48 10° WNW 19:35:12 21° N 19:37:36 10° NE visible
28 Apr 5.0 21:09:01 10° NW 21:11:27 24° N 21:11:27 24° N visible
29 Apr 5.2 20:07:03 10° NW 20:09:24 20° N 20:11:46 10° NE visible
29 Apr 5.6 21:42:40 10° NW 21:43:47 20° NW 21:43:47 20° NW visible
